Date String (YYYY-MM-DD hh:mm:ss) UTC,Instrument flags,Ambient pressure (hPa),Sample flow (lpm),Bypass flow (lpm),Sample temperature (°C),Ambient temperature (°C),ASC tube jacket temperature (°C),LED temperature (°C),Box temperature (°C),Sample RH (%),Span deviation,Mass concentration (μg/m³),Mass concentration (μg/m³),Mass concentration (μg/m³)
DateTimeUTC,F1_M11,P_M11,Q1_M11,Q2_M11,T1_M11,T2_M11,T3_M11,T4_M11,T5_M11,U1_M11,ZSPAN_M11,X0_M11,X2_M11,X1_M11
2022-10-15 00:00:00,,0822.7,5.00,0.00,29.9,28.2,00.0,38.5,31.8,08.7,0000.0,0011.89,0003.71,0002.83
2022-10-15 00:01:00,,0822.7,5.01,0.00,29.8,26.7,00.0,38.5,31.6,08.8,0000.0,0011.67,0003.73,0002.84
2022-10-15 00:02:00,,0822.7,5.00,0.00,29.7,26.0,00.0,38.4,31.5,08.8,0000.0,0011.51,0003.74,0002.82
2022-10-15 00:03:00,,0822.7,5.00,0.00,29.7,26.2,00.0,38.4,31.3,08.8,0000.0,0011.11,0003.75,0002.83
2022-10-15 00:04:00,,0822.8,4.99,0.00,29.6,26.5,00.0,38.3,31.2,08.9,0000.0,0010.68,0003.75,0002.84
2022-10-15 00:05:00,,0822.8,5.02,0.00,29.5,26.8,00.0,38.3,31.2,08.8,0000.0,0010.93,0003.76,0002.85
2022-10-15 00:06:00,,0822.8,4.99,0.00,29.5,27.2,00.0,38.3,31.2,08.8,0000.0,0011.15,0003.76,0002.85
2022-10-15 00:07:00,,0822.8,5.01,0.00,29.5,27.5,00.0,38.3,31.3,08.8,0000.0,0011.78,0003.82,0002.87
2022-10-15 00:08:00,,0822.9,4.99,0.00,29.5,27.7,00.0,38.3,31.3,08.7,0000.0,0011.13,0003.81,0002.85
2022-10-15 00:09:00,,0822.9,5.00,0.00,29.5,27.9,00.0,38.3,31.4,08.9,0000.0,0010.80,0003.84,0002.83
2022-10-15 00:10:00,,0822.9,5.00,0.00,29.5,28.1,00.0,38.3,31.4,08.9,0000.0,0010.42,0003.85,0002.81
2022-10-15 00:11:00,,0823.0,5.02,0.00,29.6,28.2,00.0,38.3,31.5,08.8,0000.0,0009.81,0003.83,0002.81
2022-10-15 00:12:00,,0823.0,5.00,0.00,29.6,28.4,00.0,38.3,31.5,08.7,0000.0,0009.67,0003.80,0002.80
2022-10-15 00:13:00,,0823.0,4.98,0.00,29.6,28.5,00.0,38.3,31.6,08.6,0000.0,0009.81,0003.78,0002.80
2022-10-15 00:14:00,,0823.0,5.00,0.00,29.7,28.6,00.0,38.4,31.6,08.6,0000.0,0009.79,0003.75,0002.79
2022-10-15 00:15:00,,0823.0,5.00,0.00,29.7,28.7,00.0,38.4,31.7,08.5,0000.0,0010.13,0003.71,0002.77
2022-10-15 00:16:00,,0823.0,5.01,0.00,29.7,28.8,00.0,38.4,31.7,08.5,0000.0,0010.14,0003.71,0002.76
2022-10-15 00:17:00,,0823.0,5.01,0.00,29.8,28.7,00.0,38.4,31.7,08.5,0000.0,0009.95,0003.73,0002.77
2022-10-15 00:18:00,,0823.0,5.00,0.00,29.8,27.6,00.0,38.4,31.7,08.5,0000.0,0009.25,0003.74,0002.76
2022-10-15 00:19:00,,0823.0,5.00,0.00,29.7,26.7,00.0,38.4,31.6,08.5,0000.0,0009.50,0003.75,0002.76
2022-10-15 00:20:00,,0823.0,5.01,0.00,29.7,26.7,00.0,38.3,31.4,08.6,0000.0,0010.08,0003.76,0002.78
2022-10-15 00:21:00,,0823.1,4.99,0.00,29.6,26.9,00.0,38.3,31.3,08.8,0000.0,0010.29,0003.79,0002.79
2022-10-15 00:22:00,,0823.1,5.01,0.00,29.6,27.3,00.0,38.3,31.3,09.1,0000.0,0010.41,0003.81,0002.78
2022-10-15 00:23:00,,0823.1,4.98,0.00,29.6,27.6,00.0,38.3,31.4,09.2,0000.0,0011.82,0003.79,0002.77
2022-10-15 00:24:00,,0823.1,5.01,0.00,29.6,27.8,00.0,38.3,31.4,09.6,0000.0,0013.03,0003.78,0002.77
2022-10-15 00:25:00,,0823.1,4.99,0.00,29.6,28.0,00.0,38.3,31.5,09.4,0000.0,0012.79,0003.81,0002.77
2022-10-15 00:26:00,,0823.1,5.02,0.00,29.6,28.2,00.0,38.4,31.5,09.2,0000.0,0013.34,0003.87,0002.79
2022-10-15 00:27:00,,0823.1,4.99,0.00,29.6,28.3,00.0,38.4,31.6,09.1,0000.0,0013.18,0003.92,0002.79
2022-10-15 00:28:00,,0823.2,4.99,0.00,29.6,28.4,00.0,38.4,31.6,09.0,0000.0,0013.45,0003.92,0002.79
2022-10-15 00:29:00,,0823.2,4.99,0.00,29.7,28.5,00.0,38.4,31.6,08.8,0000.0,0013.79,0003.88,0002.79
2022-10-15 00:30:00,,0823.2,5.01,0.00,29.7,28.6,00.0,38.4,31.7,08.8,0000.0,0013.74,0003.86,0002.78
2022-10-15 00:31:00,,0823.2,4.99,0.00,29.7,28.7,00.0,38.4,31.7,08.7,0000.0,0012.98,0003.87,0002.78
2022-10-15 00:32:00,,0823.3,4.99,0.00,29.8,28.6,00.0,38.4,31.7,08.7,0000.0,0012.53,0003.82,0002.79
2022-10-15 00:33:00,,0823.3,5.01,0.00,29.8,27.3,00.0,38.4,31.6,08.7,0000.0,0012.39,0003.79,0002.80
2022-10-15 00:34:00,,0823.3,5.01,0.00,29.7,26.5,00.0,38.4,31.5,08.7,0000.0,0012.04,0003.80,0002.81
2022-10-15 00:35:00,,0823.3,5.00,0.00,29.7,26.6,00.0,38.3,31.4,08.7,0000.0,0011.47,0003.80,0002.81
2022-10-15 00:36:00,,0823.4,5.01,0.00,29.6,26.9,00.0,38.3,31.3,08.7,0000.0,0012.22,0003.80,0002.80
2022-10-15 00:37:00,,0823.4,4.99,0.00,29.5,27.2,00.0,38.3,31.3,08.6,0000.0,0011.89,0003.78,0002.80
2022-10-15 00:38:00,,0823.4,5.02,0.00,29.5,27.5,00.0,38.3,31.4,08.6,0000.0,0011.71,0003.71,0002.81
2022-10-15 00:39:00,,0823.4,4.99,0.00,29.5,27.7,00.0,38.3,31.4,08.7,0000.0,0012.13,0003.69,0002.82
2022-10-15 00:40:00,,0823.4,5.01,0.00,29.5,27.9,00.0,38.3,31.4,08.6,0000.0,0012.90,0003.66,0002.82
2022-10-15 00:41:00,,0823.4,4.99,0.00,29.6,28.1,00.0,38.3,31.5,08.6,0000.0,0012.95,0003.65,0002.82
2022-10-15 00:42:00,,0823.4,4.99,0.00,29.6,28.2,00.0,38.3,31.5,08.6,0000.0,0013.50,0003.63,0002.82
2022-10-15 00:43:00,,0823.3,5.02,0.00,29.6,28.3,00.0,38.4,31.5,08.7,0000.0,0013.74,0003.65,0002.81
2022-10-15 00:44:00,,0823.3,4.99,0.00,29.6,28.4,00.0,38.4,31.6,08.6,0000.0,0013.72,0003.64,0002.81
2022-10-15 00:45:00,,0823.3,4.99,0.00,29.6,28.5,00.0,38.4,31.6,08.6,0000.0,0013.11,0003.67,0002.80
2022-10-15 00:46:00,,0823.3,5.02,0.00,29.7,28.6,00.0,38.4,31.6,08.6,0000.0,0012.28,0003.68,0002.81
2022-10-15 00:47:00,,0823.3,5.00,0.00,29.7,28.6,00.0,38.4,31.7,08.6,0000.0,0012.15,0003.65,0002.80
2022-10-15 00:48:00,,0823.3,5.00,0.00,29.7,28.7,00.0,38.4,31.7,08.7,0000.0,0012.18,0003.64,0002.79
2022-10-15 00:49:00,,0823.3,4.99,0.00,29.8,28.7,00.0,38.5,31.7,08.6,0000.0,0012.41,0003.66,0002.78
2022-10-15 00:50:00,,0823.4,4.99,0.00,29.8,28.8,00.0,38.5,31.7,08.6,0000.0,0012.52,0003.69,0002.76
2022-10-15 00:51:00,,0823.3,5.01,0.00,29.8,28.3,00.0,38.5,31.7,08.5,0000.0,0010.97,0003.71,0002.75
2022-10-15 00:52:00,,0823.4,4.99,0.00,29.8,26.8,00.0,38.4,31.6,08.5,0000.0,0010.95,0003.73,0002.76
2022-10-15 00:53:00,,0823.4,5.01,0.00,29.7,26.3,00.0,38.4,31.5,08.5,0000.0,0011.31,0003.77,0002.77
2022-10-15 00:54:00,,0823.4,5.01,0.00,29.6,26.5,00.0,38.4,31.3,08.6,0000.0,0011.70,0003.78,0002.77
2022-10-15 00:55:00,,0823.3,4.99,0.00,29.6,26.8,00.0,38.4,31.3,08.7,0000.0,0012.71,0003.86,0002.78
2022-10-15 00:56:00,,0823.4,5.01,0.00,29.5,27.2,00.0,38.3,31.3,08.7,0000.0,0012.69,0003.85,0002.78
2022-10-15 00:57:00,,0823.4,4.98,0.00,29.5,27.4,00.0,38.3,31.4,08.6,0000.0,0012.75,0003.86,0002.80
2022-10-15 00:58:00,,0823.4,5.01,0.00,29.5,27.7,00.0,38.3,31.4,08.6,0000.0,0013.09,0003.91,0002.81
2022-10-15 00:59:00,,0823.4,4.99,0.00,29.5,27.8,00.0,38.3,31.4,08.7,0000.0,0012.74,0003.95,0002.84
